Retour au catalogue

FENGYUN 1C DEB

ActifPO
NORAD 30249·DEBRIS·🇨🇳 China

Lancé May 10, 1999 depuis Taiyuan Satellite Launch Center

Loading…

Prochains Passages (prochaines 24 heures)

TLE

FraisSource: Space-Track

Époque: Sep 14, 2026, 12:07 UTC

1 30249U 99025XJ  26257.50528034  .00008665  00000-0  15905-2 0  9999
2 30249  98.9632  90.2467 0022093 283.4782 106.3789 14.65832057 15837

Suivez FENGYUN 1C DEB en temps réel avec AllMySat

Download on the App Store